�N����,����,�~����,�C��,���x,�C��,����,���ϕ���,�ő�u�ԕ���,�ő厞����,���˗�,�I�_���x,�n�����x,�ő啗���N��,DTYPE
"21/09/15","00:10",0.0,20.9,95.2,1010.7,331.2,1.0,1.6,335.0,0.00,20.1,23.6,"00:07:36",1
"21/09/15","00:20",0.0,20.8,95.2,1010.7,284.9,0.3,1.7,332.8,0.00,20.0,23.4,"00:12:24",1
"21/09/15","00:30",0.0,20.8,95.3,1010.4,277.1,0.2,0.9,328.1,0.00,20.1,23.5,"00:29:44",1
"21/09/15","00:40",0.0,20.8,95.3,1010.4,318.9,0.8,1.4,344.2,0.00,20.1,23.3,"00:38:48",1
"21/09/15","00:50",0.0,20.7,95.4,1010.4,310.4,0.3,1.4,342.2,0.00,20.0,23.4,"00:45:04",1
"21/09/15","01:00",0.0,20.7,95.4,1010.7,311.5,0.2,0.8,345.8,0.00,20.0,23.6,"00:56:24",1
"21/09/15","01:10",0.0,20.7,95.5,1010.2,345.3,0.1,0.4,263.5,0.00,20.0,23.5,"01:00:16",1
"21/09/15","01:20",0.0,20.7,95.5,1010.4,335.8,0.6,1.0,354.9,0.00,20.0,23.3,"01:14:24",1
"21/09/15","01:30",0.0,20.7,95.6,1010.2,297.2,0.5,0.9,338.5,0.00,20.0,23.4,"01:25:04",1
"21/09/15","01:40",0.0,20.6,95.6,1010.0,274.9,0.5,0.9,326.5,0.00,19.9,23.5,"01:33:04",1
"21/09/15","01:50",0.0,20.6,95.7,1010.0,322.9,0.2,0.6,336.7,0.00,19.9,23.4,"01:48:24",1
"21/09/15","02:00",0.0,20.7,95.7,1009.7,309.6,0.7,1.0,318.2,0.00,20.0,23.4,"01:58:56",1
"21/09/15","02:10",0.0,20.7,95.8,1009.7,325.2,0.6,1.1,335.6,0.00,20.0,23.5,"02:00:08",1
"21/09/15","02:20",0.0,20.6,95.8,1009.7,283.9,0.5,0.8,267.6,0.00,19.9,23.6,"02:11:28",1
"21/09/15","02:30",0.0,20.5,95.9,1009.5,289.0,0.5,1.0,339.0,0.00,19.9,23.4,"02:29:52",1
"21/09/15","02:40",0.0,20.5,95.9,1009.7,289.7,0.6,1.0,284.2,0.00,19.9,23.4,"02:32:56",1
"21/09/15","02:50",0.0,20.5,96.0,1009.5,305.8,0.3,0.9,332.5,0.00,19.9,23.4,"02:43:20",1
"21/09/15","03:00",0.0,20.5,96.0,1009.3,284.9,0.3,0.6,292.0,0.00,19.9,23.4,"02:50:02",1
"21/09/15","03:10",0.0,20.5,96.0,1009.0,313.6,0.7,0.9,325.4,0.00,19.9,23.6,"03:05:28",1
"21/09/15","03:20",0.0,20.5,96.0,1009.5,332.6,0.7,1.3,344.9,0.00,19.9,23.5,"03:14:32",1
"21/09/15","03:30",0.0,20.5,96.1,1009.5,300.7,0.3,0.6,327.7,0.00,19.9,23.3,"03:20:24",1
"21/09/15","03:40",0.2,20.5,96.1,1009.5,293.1,0.7,1.2,320.4,0.00,19.9,23.4,"03:38:56",1
"21/09/15","03:50",0.0,20.5,96.2,1009.7,296.5,0.6,1.1,306.1,0.00,19.9,23.2,"03:40:08",1
"21/09/15","04:00",0.0,20.4,96.2,1009.3,297.4,0.5,1.0,318.3,0.00,19.8,23.4,"03:51:04",1
"21/09/15","04:10",0.0,20.4,96.2,1009.3,324.6,0.5,1.1,342.5,0.00,19.8,23.4,"04:04:00",1
"21/09/15","04:20",0.0,20.5,96.3,1009.0,298.9,0.5,0.5,300.2,0.00,19.9,23.3,"04:10:24",1
"21/09/15","04:30",0.0,20.5,96.3,1009.0,299.0,0.3,0.8,287.0,0.00,19.9,23.5,"04:27:36",1
"21/09/15","04:40",0.0,20.5,96.4,1009.5,320.8,0.8,1.4,341.3,0.00,19.9,23.2,"04:38:08",1
"21/09/15","04:50",0.0,20.4,96.4,1009.5,297.5,0.5,0.8,325.2,0.00,19.8,23.5,"04:47:12",1
"21/09/15","05:00",0.0,20.5,96.4,1009.5,311.9,0.6,0.9,321.0,0.00,19.9,23.3,"04:52:08",1
"21/09/15","05:10",0.0,20.5,96.4,1009.3,305.5,0.6,1.4,335.0,0.00,19.9,23.5,"05:03:44",1
"21/09/15","05:20",0.0,20.5,96.5,1009.0,319.0,1.0,1.8,333.4,0.00,20.0,23.4,"05:17:28",1
"21/09/15","05:30",0.0,20.4,96.5,1009.0,316.4,0.7,1.6,343.6,0.00,19.9,23.2,"05:20:48",1
"21/09/15","05:40",0.0,20.5,96.5,1009.5,312.4,0.8,1.4,335.9,0.00,20.0,23.3,"05:38:48",1
"21/09/15","05:50",0.0,20.4,96.5,1009.3,321.4,0.5,0.9,341.0,0.00,19.9,23.3,"05:40:16",1
"21/09/15","06:00",0.0,20.4,96.5,1009.3,307.2,0.6,0.9,341.8,0.00,19.9,23.3,"05:52:32",1
"21/09/15","06:10",0.0,20.4,96.6,1009.3,305.3,0.6,1.0,341.8,0.00,19.9,23.3,"06:00:16",1
"21/09/15","06:20",0.0,20.5,96.7,1009.3,279.6,0.6,0.9,254.9,0.00,20.0,23.3,"06:18:40",1
"21/09/15","06:30",0.0,20.5,96.7,1009.3,306.1,0.7,1.4,340.1,0.00,20.0,23.3,"06:25:36",1
"21/09/15","06:40",0.0,20.7,96.7,1009.3,329.1,1.1,2.1,330.1,0.00,20.2,23.4,"06:35:28",1
"21/09/15","06:50",0.0,20.8,96.7,1009.3,329.3,1.2,2.2,344.1,0.01,20.3,23.5,"06:40:02",1
"21/09/15","07:00",0.0,20.8,96.8,1009.3,325.9,1.3,2.7,328.2,0.01,20.3,23.1,"06:52:24",1
"21/09/15","07:10",0.0,21.0,96.8,1009.3,317.2,1.2,2.1,328.4,0.03,20.5,23.3,"07:02:32",1
"21/09/15","07:20",0.0,21.2,96.9,1009.3,326.8,1.2,2.6,328.4,0.04,20.7,23.4,"07:13:28",1
"21/09/15","07:30",0.0,21.2,96.8,1009.0,319.4,1.7,2.8,340.3,0.05,20.7,23.3,"07:22:48",1
"21/09/15","07:40",0.0,21.7,96.8,1009.5,307.3,1.1,1.9,335.1,0.06,21.2,23.3,"07:30:24",1
"21/09/15","07:50",0.0,21.7,96.6,1009.3,318.7,1.2,2.6,335.5,0.05,21.2,23.2,"07:49:36",1
"21/09/15","08:00",0.0,21.6,96.8,1009.5,326.6,1.6,2.8,333.1,0.05,21.1,23.4,"07:52:40",1
"21/09/15","08:10",0.0,22.0,96.6,1009.0,322.2,1.1,2.2,342.1,0.06,21.5,23.1,"08:00:24",1
"21/09/15","08:20",0.0,22.3,96.5,1009.5,269.1,0.8,1.9,310.1,0.09,21.8,23.2,"08:10:32",1
"21/09/15","08:30",0.0,22.5,96.5,1009.3,277.9,0.7,1.1,339.4,0.09,22.0,23.3,"08:25:28",1
"21/09/15","08:40",0.0,22.5,96.4,1009.5,289.9,1.0,2.5,345.6,0.12,21.9,23.1,"08:38:48",1
"21/09/15","08:50",0.0,22.4,96.4,1009.5,318.5,1.3,3.1,343.0,0.13,21.8,23.4,"08:47:44",1
"21/09/15","09:00",0.0,22.2,96.2,1009.5,325.6,1.5,2.5,334.9,0.09,21.6,23.4,"08:54:48",1
"21/09/15","09:10",0.0,22.8,96.2,1009.3,298.7,1.1,2.0,337.6,0.15,22.2,23.4,"09:06:08",1
"21/09/15","09:20",0.0,22.7,95.8,1009.5,305.9,1.2,2.1,346.8,0.14,22.0,23.3,"09:12:48",1
"21/09/15","09:30",0.0,22.7,95.2,1009.5,322.0,1.3,3.1,346.5,0.14,21.9,23.3,"09:29:12",1
"21/09/15","09:40",0.0,22.8,94.8,1009.3,318.9,1.3,4.4,348.8,0.14,22.0,23.4,"09:38:56",1
"21/09/15","09:50",0.0,22.8,94.7,1009.5,321.1,1.7,4.0,350.4,0.13,21.9,23.4,"09:44:48",1
"21/09/15","10:00",0.0,23.0,94.4,1009.0,313.0,1.2,3.2,325.5,0.13,22.1,23.5,"09:54:24",1
"21/09/15","10:10",0.0,23.2,93.9,1009.0,314.4,1.3,2.9,347.4,0.13,22.2,23.4,"10:08:44",1
"21/09/15","10:20",0.0,23.4,93.2,1008.8,309.0,1.5,2.8,322.2,0.15,22.3,23.5,"10:13:28",1
"21/09/15","10:30",0.0,23.7,92.1,1008.8,303.9,1.2,2.4,337.5,0.16,22.4,23.5,"10:22:08",1
"21/09/15","10:40",0.0,24.2,91.2,1008.6,307.6,1.2,3.3,354.7,0.19,22.7,23.6,"10:34:32",1
"21/09/15","10:50",0.0,24.4,89.7,1008.6,314.3,1.7,4.3,346.7,0.20,22.6,23.6,"10:48:00",1
"21/09/15","11:00",0.0,25.1,87.6,1008.3,294.1,1.1,2.8,307.3,0.24,22.9,23.5,"10:52:00",1
"21/09/15","11:10",0.0,25.5,83.4,1008.3,351.7,1.5,3.5,327.2,0.25,22.5,23.6,"11:07:04",1
"21/09/15","11:20",0.0,25.9,77.0,1008.6,355.5,1.7,4.0,334.9,0.27,21.6,23.5,"11:15:28",1
"21/09/15","11:30",0.0,26.4,73.3,1007.8,354.7,1.8,6.3,18.5,0.30,21.3,23.7,"11:21:36",1
"21/09/15","11:40",0.0,26.6,71.7,1007.8,357.9,2.0,5.5,325.4,0.32,21.1,23.6,"11:36:16",1
"21/09/15","11:50",0.0,26.3,71.4,1007.6,343.0,2.5,5.2,349.7,0.25,20.8,23.6,"11:42:48",1
"21/09/15","12:00",0.0,26.4,70.0,1007.6,358.2,1.7,3.5,326.8,0.24,20.5,23.7,"11:52:56",1
"21/09/15","12:10",0.0,26.9,69.3,1006.7,341.4,1.6,3.4,34.3,0.32,20.8,23.8,"12:00:08",1
"21/09/15","12:20",0.0,27.5,67.8,1006.9,339.3,0.7,1.8,346.5,0.29,21.1,23.7,"12:10:08",1
"21/09/15","12:30",0.0,27.3,67.2,1006.9,345.5,1.7,4.1,307.4,0.30,20.7,23.9,"12:24:08",1
"21/09/15","12:40",0.0,27.6,66.3,1006.9,350.5,1.5,4.8,343.7,0.32,20.8,24.0,"12:34:40",1
"21/09/15","12:50",0.0,28.2,63.1,1006.9,20.4,1.2,2.9,305.3,0.37,20.6,23.9,"12:48:40",1
"21/09/15","13:00",0.0,28.3,62.9,1007.1,7.0,1.5,3.9,334.0,0.35,20.6,24.0,"12:51:20",1
"21/09/15","13:10",0.0,28.3,62.4,1007.1,345.6,1.1,3.3,2.5,0.26,20.5,23.9,"13:05:36",1
"21/09/15","13:20",0.0,27.1,62.6,1006.9,2.1,2.0,4.5,0.2,0.11,19.4,23.9,"13:14:16",1
"21/09/15","13:30",0.0,26.8,63.7,1006.7,12.6,1.8,4.1,38.0,0.16,19.4,23.9,"13:24:16",1
"21/09/15","13:40",0.0,26.8,63.5,1006.7,10.2,1.8,3.5,344.6,0.17,19.3,24.2,"13:30:40",1
"21/09/15","13:50",0.0,27.4,63.9,1006.2,341.3,1.0,2.2,351.4,0.23,20.0,24.0,"13:42:08",1
"21/09/15","14:00",0.0,28.3,62.2,1006.7,1.4,1.3,2.9,344.1,0.45,20.4,23.9,"13:53:20",1
"21/09/15","14:10",0.0,28.9,57.8,1006.7,18.1,2.0,6.3,320.9,0.44,19.8,24.1,"14:00:56",1
"21/09/15","14:20",0.0,28.2,57.8,1006.7,29.0,1.8,4.3,20.6,0.29,19.1,24.0,"14:11:28",1
"21/09/15","14:30",0.0,29.0,56.0,1006.4,25.4,1.6,3.7,348.5,0.47,19.4,24.2,"14:23:44",1
"21/09/15","14:40",0.0,29.0,53.9,1006.9,9.4,2.1,4.8,344.7,0.44,18.8,24.2,"14:37:36",1
"21/09/15","14:50",0.0,28.2,56.6,1006.4,345.2,2.5,5.1,335.3,0.38,18.8,24.0,"14:45:28",1
"21/09/15","15:00",0.0,28.3,57.5,1006.4,340.7,2.6,5.8,318.4,0.39,19.2,24.5,"14:58:48",1
"21/09/15","15:10",0.0,28.7,56.1,1006.7,9.7,1.7,5.2,20.2,0.36,19.1,24.2,"15:08:00",1
"21/09/15","15:20",0.0,28.6,56.9,1006.9,359.6,1.8,4.8,350.1,0.33,19.3,24.3,"15:15:44",1
"21/09/15","15:30",0.0,27.9,53.5,1006.4,2.7,2.8,6.0,27.0,0.32,17.6,24.2,"15:27:28",1
"21/09/15","15:40",0.0,27.8,54.6,1006.2,16.8,2.5,6.4,41.8,0.30,17.9,24.3,"15:38:48",1
"21/09/15","15:50",0.0,27.8,55.0,1006.2,1.1,2.3,5.9,10.3,0.28,18.0,24.1,"15:45:36",1
"21/09/15","16:00",0.0,27.5,58.1,1006.0,334.5,2.6,6.3,346.0,0.25,18.6,24.3,"15:53:20",1
"21/09/15","16:10",0.0,27.8,57.8,1006.0,4.2,1.7,4.3,2.7,0.22,18.8,24.3,"16:01:52",1
"21/09/15","16:20",0.0,27.5,56.8,1006.0,6.5,2.3,4.8,348.9,0.19,18.2,24.3,"16:11:44",1
"21/09/15","16:30",0.0,27.1,58.5,1006.2,342.7,2.2,6.6,348.9,0.17,18.3,24.2,"16:26:24",1
"21/09/15","16:40",0.0,26.8,58.4,1005.7,1.5,2.3,5.6,345.7,0.14,18.0,24.5,"16:37:36",1
"21/09/15","16:50",0.0,26.7,59.3,1006.4,356.1,2.2,5.5,335.2,0.11,18.1,24.2,"16:49:12",1
"21/09/15","17:00",0.0,26.1,60.5,1006.4,337.9,3.1,7.5,326.7,0.09,17.9,24.2,"16:58:16",1
"21/09/15","17:10",0.0,25.8,61.0,1006.9,340.3,3.0,5.5,336.1,0.07,17.8,24.3,"17:09:12",1
"21/09/15","17:20",0.0,25.5,61.9,1006.7,337.2,3.0,5.7,349.9,0.05,17.7,24.3,"17:13:28",1
"21/09/15","17:30",0.0,25.1,62.6,1006.9,333.1,3.2,6.2,348.7,0.03,17.5,24.4,"17:22:16",1
"21/09/15","17:40",0.0,24.9,64.2,1007.4,336.8,2.3,4.7,339.0,0.02,17.7,24.4,"17:37:12",1
"21/09/15","17:50",0.0,24.6,65.1,1007.1,322.6,2.1,4.8,339.8,0.01,17.7,24.4,"17:48:16",1
"21/09/15","18:00",0.0,24.0,66.6,1007.4,329.1,2.2,4.0,326.2,0.00,17.4,24.3,"17:50:32",1
"21/09/15","18:10",0.0,23.6,68.0,1007.4,333.6,2.3,4.3,348.4,0.00,17.4,24.4,"18:09:12",1
"21/09/15","18:20",0.0,23.4,68.7,1007.4,321.6,2.6,5.6,336.5,0.00,17.4,24.2,"18:13:04",1
"21/09/15","18:30",0.0,23.0,69.5,1008.1,308.9,1.7,4.0,305.7,0.00,17.2,24.4,"18:20:02",1
"21/09/15","18:40",0.0,22.8,70.4,1007.8,322.7,2.5,4.1,340.5,0.00,17.2,24.3,"18:38:16",1
"21/09/15","18:50",0.0,22.7,71.3,1007.6,325.7,2.5,4.2,321.8,0.00,17.3,24.0,"18:49:44",1
"21/09/15","19:00",0.0,22.6,72.3,1008.1,331.9,2.6,5.4,342.3,0.00,17.4,24.2,"18:53:28",1
"21/09/15","19:10",0.0,22.2,74.1,1008.3,336.9,2.7,4.4,322.1,0.00,17.4,24.1,"19:02:16",1
"21/09/15","19:20",0.0,22.1,75.1,1008.3,330.6,2.6,5.0,358.7,0.00,17.5,23.9,"19:10:56",1
"21/09/15","19:30",0.0,22.0,75.6,1008.3,326.4,2.3,5.4,334.2,0.00,17.5,23.9,"19:21:52",1
"21/09/15","19:40",0.0,21.8,76.3,1008.8,325.7,1.7,3.2,292.4,0.00,17.5,23.9,"19:30:08",1
"21/09/15","19:50",0.0,21.6,77.0,1009.0,316.6,1.5,3.1,319.0,0.00,17.4,23.9,"19:46:40",1
"21/09/15","20:00",0.0,21.6,77.6,1009.3,295.7,1.5,3.3,336.7,0.00,17.6,23.9,"19:54:32",1
"21/09/15","20:10",0.0,21.3,78.3,1009.0,298.6,1.3,2.8,334.5,0.00,17.4,23.9,"20:04:48",1
"21/09/15","20:20",0.0,21.0,79.1,1009.5,271.2,1.1,1.9,252.6,0.00,17.3,23.7,"20:10:08",1
"21/09/15","20:30",0.0,20.7,80.1,1009.0,279.0,1.0,1.8,326.1,0.00,17.2,23.8,"20:29:28",1
"21/09/15","20:40",0.0,20.7,80.9,1009.7,296.4,1.2,2.7,338.1,0.00,17.3,23.8,"20:35:20",1
"21/09/15","20:50",0.0,20.7,81.0,1010.0,293.6,1.1,2.5,327.4,0.00,17.4,23.8,"20:45:44",1
"21/09/15","21:00",0.0,20.8,81.0,1010.0,283.5,1.1,3.3,343.1,0.00,17.5,23.7,"20:52:24",1
"21/09/15","21:10",0.0,20.5,81.3,1009.7,274.0,1.0,1.6,252.1,0.00,17.2,23.7,"21:00:48",1
"21/09/15","21:20",0.0,20.2,82.0,1010.2,283.7,0.8,1.6,333.1,0.00,17.1,23.7,"21:13:52",1
"21/09/15","21:30",0.0,19.9,82.9,1010.4,290.8,0.8,1.6,322.0,0.00,16.9,23.7,"21:29:04",1
"21/09/15","21:40",0.0,19.8,83.7,1010.4,303.7,1.0,1.8,338.7,0.00,17.0,23.5,"21:36:40",1
"21/09/15","21:50",0.0,19.5,84.6,1010.4,334.5,1.1,1.6,335.0,0.00,16.9,23.2,"21:42:48",1
"21/09/15","22:00",0.0,19.3,85.8,1010.2,328.6,1.3,2.1,343.0,0.00,16.9,23.5,"21:51:04",1
"21/09/15","22:10",0.0,19.3,86.8,1010.7,326.0,1.3,2.2,335.8,0.00,17.1,23.5,"22:06:00",1
"21/09/15","22:20",0.0,19.1,87.3,1010.9,326.6,1.1,1.7,343.9,0.00,17.0,23.4,"22:14:24",1
"21/09/15","22:30",0.0,19.1,88.0,1010.4,344.6,1.0,1.4,346.3,0.00,17.1,23.4,"22:29:20",1
"21/09/15","22:40",0.0,18.8,88.5,1010.2,317.9,1.1,1.6,321.7,0.00,16.9,23.4,"22:32:48",1
"21/09/15","22:50",0.0,18.7,89.0,1010.4,321.4,1.3,2.1,315.1,0.00,16.9,23.3,"22:48:56",1
"21/09/15","23:00",0.0,18.7,89.6,1010.7,329.9,1.3,1.9,340.7,0.00,17.0,23.4,"22:51:28",1
"21/09/15","23:10",0.0,18.7,89.9,1010.0,326.8,1.2,1.7,323.6,0.00,17.0,23.3,"23:04:24",1
"21/09/15","23:20",0.0,18.6,90.3,1010.4,322.4,1.0,1.9,331.6,0.00,17.0,23.3,"23:12:08",1
"21/09/15","23:30",0.0,18.3,90.5,1010.4,295.4,0.7,1.2,309.4,0.00,16.8,23.2,"23:23:28",1
"21/09/15","23:40",0.0,18.1,90.8,1010.4,287.8,0.7,1.2,304.2,0.00,16.6,23.3,"23:31:12",1
"21/09/15","23:50",0.0,17.9,91.0,1010.2,273.0,0.6,1.2,310.9,0.00,16.5,23.4,"23:45:04",1
"21/09/15","24:00",0.0,18.1,91.3,1010.4,272.9,0.5,1.0,311.7,0.00,16.7,23.0,"23:51:04",1
